This demonstration page uses our WeatherBlox Daily Observations layout. Learn more.

Left ArrowRight Arrow

Hourly Observations for July 19, 2022

Temp ( °F °C ) Dew Point ( °F °C ) Humidity (%) Winds ( mph kmh ) Pressure ( in mb ) Visibility ( mi km ) Precip ( " mm )
12:53 am 00:53 Clear 68 20 51 10.6 55 55 ENE 3 6 29.94 1014 10 16 0.00 0.00
1:53 am 01:53 Clear 61 16.1 50 10 67 67 Calm 29.96 1015 10 16 0.00 0.00
2:53 am 02:53 Mostly Clear 62 16.7 51 10.6 67 67 Calm 29.96 1014 10 16 0.00 0.00
3:53 am 03:53 Clear 63 17.2 52 11.1 68 68 Calm 29.96 1015 10 16 0.00 0.00
4:53 am 04:53 Mostly Clear 59 15 51 10.6 75 75 Calm 29.98 1015 10 16 0.00 0.00
5:53 am 05:53 Mostly Cloudy 60 15.6 53 11.7 78 78 SE 3 6 30.00 1016 10 16 0.00 0.00
6:53 am 06:53 Mostly Cloudy 63 17.2 53 11.7 70 70 Calm 30.01 1016 10 16 0.00 0.00
7:53 am 07:53 Mostly Cloudy 65 18.3 53 11.7 66 66 E 3 6 30.03 1017 10 16 0.00 0.00
8:53 am 08:53 Cloudy with Light Rain 67 19.4 54 12.2 63 63 Calm 30.06 1018 10 16 0.00 0.00
9:53 am 09:53 Mostly Cloudy 76 24.4 54 12.2 47 47 Calm 30.02 1017 10 16 0.00 0.00
10:53 am 10:53 Partly Cloudy 80 26.7 52 11.1 38 38 SW 6 9 30.01 1016 10 16 0.00 0.00
11:53 am 11:53 Mostly Sunny 86 30 49 9.4 28 28 W 8 13 30.01 1016 10 16 0.00 0.00
12:53 pm 12:53 Mostly Sunny 87 30.6 48 8.9 26 26 W 9 15 29.99 1016 10 16 0.00 0.00
1:53 pm 13:53 Sunny 89 31.7 49 9.4 25 25 SW 9 15 29.98 1015 10 16 0.00 0.00
2:53 pm 14:53 Sunny 91 32.8 44 6.7 20 20 W 12 19 29.94 1014 10 16 0.00 0.00
3:53 pm 15:53 Mostly Sunny 92 33.3 44 6.7 19 19 VRB 6 9 29.92 1013 10 16 0.00 0.00
4:53 pm 16:53 Mostly Cloudy with Nearby Thunderstorms 81 27.2 48 8.9 32 32 W 20 31 29.98 1015 10 16 0.00 0.00
5:02 pm 17:02 Cloudy with Thunderstorms 78 25.6 49 9.4 36 36 W 25 41 29.71 1006 10 16 0.00 0.00
5:21 pm 17:21 Cloudy with Thunderstorms 73 22.8 52 11.1 48 48 NNW 13 20 29.81 1010 10 16 0.00 0.00
5:29 pm 17:29 Cloudy with Light Rain 70 21.1 55 12.8 59 59 NE 14 22 29.84 1010 6 10 0.02 0.51
5:42 pm 17:42 Cloudy with Light Rain 73 22.8 55 12.8 53 53 NE 12 19 29.78 1009 10 16 0.02 0.51
5:53 pm 17:53 Mostly Cloudy 74 23.3 55 12.8 52 52 E 10 17 30.02 1017 10 16 0.02 0.51
6:53 pm 18:53 Sunny 77 25 55 12.8 47 47 SE 6 9 29.97 1015 10 16 0.00 0.00
7:53 pm 19:53 Mostly Cloudy 74 23.3 54 12.2 50 50 S 9 15 29.99 1016 10 16 0.00 0.00
8:53 pm 20:53 Clear 72 22.2 50 10 46 46 SW 8 13 30.02 1017 10 16 0.00 0.00
9:53 pm 21:53 Clear 69 20.6 49 9.4 49 49 SSW 8 13 30.04 1017 10 16 0.00 0.00
10:53 pm 22:53 Mostly Cloudy 67 19.4 50 10 55 55 SSE 8 13 30.03 1017 10 16 0.00 0.00
11:53 pm 23:53 Clear 69 20.6 51 10.6 53 53 ESE 6 9 29.99 1016 10 16 0.00 0.00

Powered by AerisWeather